Home > Weather > Oranjestad > Past weeks

Flag for Aruba Weather for the Past 2 Weeks in Oranjestad, Aruba

Now
81 °F

Passing clouds.


Feels Like: 86 °F
Forecast: 81 / 88 °F
Wind: 15 mph from East

Location: Queen Beatrix Airport - Aruba

Current Time: May 2, 2016 at 2:47:56 AM

Latest Report: May 2, 2016 at 2:00 AM


Visibility: N/A

Pressure: 29.83 "Hg

Humidity: 84%

Dew Point: 75 °F

Location of OranjestadLocation

Historic Weather in Oranjestad — Graph

°F

Oranjestad Temperature Yesterday

Maximum temperature yesterday: 90 °F (at 1:00 PM)
Minimum temperature yesterday: 82 °F (at 12:00 AM)
Average temperature yesterday: 84 °F

High & Low Weather Summary for the Past Weeks

 TemperatureHumidityPressure
High91 °F (Apr 17, 1:00 PM)89% (Apr 17, 2:00 AM)29.89 "Hg (Apr 17, 2:00 AM)
Low81 °F (Apr 17, 2:00 AM)59% (May 1, 1:00 PM)29.68 "Hg (Apr 27, 5:00 PM)
Average85 °F77%29.81 "Hg
* Reported Midnight between Apr 16 and Apr 17 — Midnight between May 1 and May 2, Oranjestad, Weather by CustomWeather, © 2016

Note: Actual official high and low records may vary slightly from our data, if they occured in-between our weather recording intervals... More about our weather records

Advertising

Oranjestad Weather History for the Previous 24 Hours

Scroll right to see more
 ConditionsComfort  
Time TempWeatherWind HumidityBarometerVisibility
12:00 AM
Mon, May 2
82 °FPassing clouds.17 mph79%29.86 "HgN/A
11:00 PM
Sun, May 1
82 °FPassing clouds.18 mph79%29.89 "HgN/A
10:00 PM82 °FPassing clouds.17 mph79%29.86 "HgN/A
9:00 PM82 °FPartly cloudy.17 mph79%29.86 "HgN/A
8:00 PM82 °FPassing clouds.20 mph79%29.83 "HgN/A
7:00 PM84 °FPassing clouds.17 mph74%29.83 "HgN/A
6:00 PM84 °FScattered clouds.21 mph70%29.80 "HgN/A
5:00 PM86 °FPassing clouds.20 mph70%29.77 "HgN/A
4:00 PM88 °FPassing clouds.20 mph66%29.77 "HgN/A
3:00 PM86 °FPassing clouds.15 mph75%29.77 "HgN/A
2:00 PM86 °FPassing clouds.17 mph75%29.80 "HgN/A
1:00 PM90 °FPassing clouds.18 mph59%29.83 "HgN/A
12:00 PM86 °FPassing clouds.18 mph70%29.83 "HgN/A
11:00 AM86 °FScattered clouds.18 mph70%29.86 "HgN/A
10:00 AM84 °FScattered clouds.18 mph79%29.86 "HgN/A
9:00 AM84 °FPassing clouds.20 mph74%29.83 "HgN/A
8:00 AM84 °FPassing clouds.25 mph74%29.83 "HgN/A
7:00 AM82 °FPassing clouds.29 mph79%29.80 "HgN/A
6:00 AM82 °FPassing clouds.26 mph74%29.77 "HgN/A
5:00 AM82 °FPassing clouds.22 mph79%29.77 "HgN/A
4:00 AM82 °FPassing clouds.18 mph84%29.77 "HgN/A
3:00 AM82 °FPassing clouds.20 mph79%29.77 "HgN/A
2:00 AM82 °FPassing clouds.20 mph79%29.80 "HgN/A
Weather by CustomWeather, © 2016

See weather overviewHow to use our weather pages